Weather History for KDUH - April, 2013

Change the Weather History Date:

Monday, April 8, 2013

  Actual Average (KTOL) Record (KTOL)
Temperature  
Mean Temperature 56 °F 47 °F  
Max Temperature 71 °F 57 °F 79 °F (2001)
Min Temperature 41 °F 36 °F 10 °F (1982)
Degree Days  
Heating Degree Days 9 19  
Month to date heating degree days 159  
Since 1 July heating degree days 5585  
Cooling Degree Days 0 0  
Month to date cooling degree days 0  
Year to date cooling degree days 0  
Growing Degree Days 6 (Base 50)    
Moisture  
Dew Point 42 °F    
Average Humidity 69    
Maximum Humidity 90    
Minimum Humidity 48    
Precipitation  
Precipitation 0.00 in 0.11 in 0.99 in (1991)
Month to date precipitation 0.82  
Year to date precipitation 7.42  
Snow  
Snow 0.00 in 0.00 in - ()
Month to date snowfall 0.6  
Since 1 July snowfall 36.8  
Snow Depth -    
Sea Level Pressure  
Sea Level Pressure 29.90 in    
Wind  
Wind Speed 7 mph (ESE)    
Max Wind Speed 20 mph    
Max Gust Speed 32 mph    
Visibility 9 miles    
Events Rain    
T = Trace of Precipitation, MM = Missing Value Source: NWS Daily Summary

Daily Weather History Graph

Daily Weather History Graph

Search for Another Location

Airport or City:

Trip Planner

Search our weather history database for the weather conditions in past years. The results will help you decide how hot, cold, wet, or windy it might be!

Date:

Astronomy

Apr. 08, 2013 Rise Set
Actual Time 7:05 AM EDT 8:08 PM EDT
Civil Twilight 6:37 AM EDT 8:36 PM EDT
Nautical Twilight 6:03 AM EDT 9:10 PM EDT
Astronomical Twilight 5:27 AM EDT 9:46 PM EDT
Moon 5:56 AM EDT (4/8) 6:40 PM EDT (4/8)
Length of Visible Light 13h 59m
Length of Day
13h 02m
Waning Crescent, 3% of the Moon is Illuminated
Apr 8
Waning Crescent
Apr 10
New
Apr 18
First Quarter
Apr 25
Full
May 2
Last Quarter

Hourly Weather History & Observations

Time (EDT) Temp. Windchill Dew Point Humidity Pressure Visibility Wind Dir Wind Speed Gust Speed Precip Events Conditions
12:15 AM 44.8 °F 41.0 °F 34.7 °F 68% 30.03 in 10.0 mi ESE 6.9 mph - N/A   Clear
12:35 AM 43.3 °F 39.2 °F 34.9 °F 72% 30.04 in 10.0 mi ESE 6.9 mph - N/A   Clear
12:55 AM 42.8 °F 39.3 °F 34.7 °F 73% 30.04 in 10.0 mi East 5.8 mph - N/A   Clear
1:15 AM 42.4 °F 38.1 °F 34.3 °F 73% 30.05 in 10.0 mi East 6.9 mph - N/A   Clear
1:35 AM 42.1 °F 37.7 °F 34.0 °F 73% 30.04 in 10.0 mi East 6.9 mph - N/A   Clear
1:55 AM 42.1 °F 37.7 °F 33.8 °F 72% 30.04 in 10.0 mi East 6.9 mph - N/A   Clear
2:15 AM 41.9 °F 37.5 °F 33.8 °F 73% 30.03 in 10.0 mi ESE 6.9 mph - N/A   Clear
2:35 AM 41.9 °F 38.2 °F 33.8 °F 73% 30.03 in 10.0 mi East 5.8 mph - N/A   Clear
2:55 AM 41.4 °F 36.8 °F 33.8 °F 74% 30.03 in 10.0 mi ESE 6.9 mph - N/A   Clear
3:15 AM 41.5 °F 37.1 °F 33.3 °F 72% 30.02 in 10.0 mi ESE 6.9 mph - N/A   Clear
3:35 AM 41.2 °F 36.6 °F 33.1 °F 73% 30.03 in 10.0 mi ESE 6.9 mph - N/A   Clear
3:55 AM 41.5 °F 38.6 °F 33.4 °F 73% 30.02 in 10.0 mi East 4.6 mph - N/A   Clear
4:15 AM 41.5 °F 37.1 °F 33.4 °F 73% 30.02 in 10.0 mi ESE 6.9 mph - N/A   Clear
4:35 AM 41.5 °F 36.4 °F 33.3 °F 72% 30.01 in 10.0 mi ESE 8.1 mph - N/A   Clear
4:55 AM 41.0 °F 39.0 °F 33.4 °F 74% 29.99 in 10.0 mi East 3.5 mph - N/A   Clear
5:15 AM 41.0 °F 38.0 °F 34.0 °F 76% 29.99 in 10.0 mi East 4.6 mph - N/A   Clear
5:35 AM 41.2 °F 37.3 °F 34.2 °F 76% 29.98 in 10.0 mi East 5.8 mph - N/A   Clear
5:55 AM 41.5 °F 37.1 °F 34.7 °F 77% 29.98 in 10.0 mi East 6.9 mph - N/A   Clear
6:15 AM 41.4 °F 37.6 °F 34.9 °F 78% 29.97 in 10.0 mi East 5.8 mph - N/A   Clear
6:35 AM 41.4 °F 37.6 °F 35.1 °F 78% 29.97 in 10.0 mi East 5.8 mph - N/A   Clear
6:55 AM 41.5 °F 37.8 °F 35.2 °F 78% 29.97 in 10.0 mi East 5.8 mph - N/A   Clear
7:15 AM 41.9 °F 36.9 °F 35.6 °F 78% 29.96 in 10.0 mi East 8.1 mph - N/A   Clear
7:35 AM 42.4 °F 38.1 °F 36.1 °F 78% 29.97 in 10.0 mi ESE 6.9 mph - N/A   Clear
7:55 AM 43.0 °F 38.8 °F 36.3 °F 77% 29.97 in 10.0 mi East 6.9 mph - N/A   Clear
8:15 AM 44.4 °F 40.0 °F 36.9 °F 75% 29.96 in 10.0 mi ESE 8.1 mph - N/A   Clear
8:35 AM 45.3 °F 41.1 °F 37.4 °F 74% 29.96 in 10.0 mi East 8.1 mph - N/A   Clear
8:55 AM 46.4 °F 42.4 °F 37.6 °F 71% 29.95 in 10.0 mi ESE 8.1 mph - N/A   Clear
9:15 AM 47.8 °F - 37.6 °F 68% 29.94 in 10.0 mi ESE 10.4 mph - N/A   Mostly Cloudy
9:35 AM 48.2 °F - 37.6 °F 67% 29.93 in 7.0 mi ESE 8.1 mph - N/A   Overcast
9:55 AM 48.2 °F - 38.3 °F 69% 29.92 in 10.0 mi ESE 8.1 mph - N/A   Overcast
10:15 AM 48.0 °F - 38.5 °F 70% 29.91 in 7.0 mi ESE 6.9 mph - N/A   Light Drizzle
10:35 AM 48.9 °F - 39.9 °F 71% 29.90 in 7.0 mi East 5.8 mph - N/A   Light Drizzle
10:55 AM 51.8 °F - 40.5 °F 65% 29.89 in 10.0 mi ESE 6.9 mph - N/A   Mostly Cloudy
11:15 AM 52.5 °F - 41.4 °F 66% 29.87 in 10.0 mi East 8.1 mph - N/A   Overcast
11:35 AM 52.9 °F - 41.9 °F 66% 29.87 in 10.0 mi East 6.9 mph - N/A   Overcast
11:55 AM 52.9 °F - 42.3 °F 67% 29.85 in 10.0 mi East 6.9 mph - N/A   Overcast
12:15 PM 53.4 °F - 42.1 °F 65% 29.84 in 10.0 mi East 6.9 mph - N/A   Overcast
12:35 PM 54.1 °F - 41.9 °F 63% 29.83 in 10.0 mi East 5.8 mph - N/A   Overcast
12:55 PM 52.7 °F - 41.4 °F 65% 29.81 in 10.0 mi East 8.1 mph - N/A   Overcast
1:15 PM 53.8 °F - 41.4 °F 63% 29.80 in 10.0 mi ENE 4.6 mph - N/A   Overcast
1:35 PM 50.9 °F - 43.7 °F 76% 29.81 in 4.0 mi NE 3.5 mph - N/A Rain Rain
1:55 PM 49.1 °F - 45.0 °F 86% 29.81 in 2.0 mi North 3.5 mph - N/A Rain Light Rain
2:15 PM 49.1 °F - 46.0 °F 89% 29.79 in 2.5 mi Calm Calm - N/A Rain Light Rain
2:35 PM 50.7 °F - 48.0 °F 90% 29.78 in 2.5 mi Calm Calm - N/A   Overcast
2:55 PM 53.4 °F - 50.4 °F 89% 29.76 in 2.5 mi Calm Calm - N/A   Overcast
3:15 PM 54.5 °F - 51.3 °F 89% 29.76 in 3.0 mi Calm Calm - N/A   Overcast
3:35 PM 59.0 °F - 54.5 °F 85% 29.75 in 5.0 mi SSW 9.2 mph - N/A   Overcast
3:55 PM 66.6 °F - 53.4 °F 63% 29.74 in 10.0 mi SW 15.0 mph 19.6 mph N/A   Overcast
4:15 PM 69.3 °F - 53.6 °F 57% 29.73 in 10.0 mi SW 15.0 mph 24.2 mph N/A   Mostly Cloudy
4:35 PM 69.4 °F - 53.1 °F 56% 29.73 in 10.0 mi SW 17.3 mph 26.5 mph N/A   Overcast
4:55 PM 69.3 °F - 52.9 °F 56% 29.73 in 10.0 mi SW 9.2 mph 20.7 mph N/A   Overcast
5:15 PM 71.1 °F - 51.8 °F 50% 29.73 in 10.0 mi SW 19.6 mph 29.9 mph N/A   Mostly Cloudy
5:35 PM 70.7 °F - 51.8 °F 51% 29.74 in 10.0 mi WSW 16.1 mph 32.2 mph N/A   Overcast
5:55 PM 71.8 °F - 52.3 °F 50% 29.74 in 10.0 mi SW 13.8 mph 23.0 mph N/A   Mostly Cloudy
6:15 PM 70.9 °F - 52.5 °F 52% 29.74 in 10.0 mi WSW 16.1 mph 25.3 mph N/A   Mostly Cloudy
6:35 PM 71.6 °F - 52.3 °F 51% 29.75 in 10.0 mi SW 16.1 mph 28.8 mph N/A   Mostly Cloudy
6:55 PM 71.6 °F - 51.8 °F 50% 29.77 in 10.0 mi WSW 11.5 mph 21.9 mph N/A   Scattered Clouds
7:15 PM 70.7 °F - 50.4 °F 48% 29.77 in 10.0 mi WSW 13.8 mph 21.9 mph N/A   Clear
7:35 PM 69.8 °F - 50.4 °F 50% 29.79 in 10.0 mi WSW 13.8 mph 21.9 mph N/A   Clear
7:55 PM 68.2 °F - 50.5 °F 53% 29.81 in 10.0 mi West 10.4 mph - N/A   Scattered Clouds
8:15 PM 66.4 °F - 50.7 °F 57% 29.83 in 10.0 mi West 9.2 mph - N/A   Clear
8:35 PM 63.5 °F - 49.8 °F 61% 29.85 in 10.0 mi WNW 9.2 mph 20.7 mph N/A   Clear
8:55 PM 61.9 °F - 48.6 °F 62% 29.87 in 10.0 mi WNW 9.2 mph 16.1 mph N/A   Clear
9:15 PM 60.8 °F - 47.5 °F 62% 29.88 in 10.0 mi West 9.2 mph 16.1 mph N/A   Clear
9:35 PM 59.5 °F - 46.4 °F 62% 29.90 in 10.0 mi WNW 6.9 mph - N/A   Clear
9:55 PM 58.1 °F - 45.3 °F 62% 29.92 in 10.0 mi WNW 6.9 mph - N/A   Clear
10:15 PM 56.8 °F - 44.1 °F 62% 29.93 in 10.0 mi WNW 8.1 mph - N/A   Clear
10:35 PM 55.4 °F - 44.1 °F 66% 29.94 in 10.0 mi West 6.9 mph - N/A   Clear
10:55 PM 54.0 °F - 43.9 °F 69% 29.94 in 10.0 mi West 6.9 mph - N/A   Scattered Clouds
11:15 PM 53.1 °F - 43.3 °F 70% 29.95 in 10.0 mi West 3.5 mph - N/A   Clear
11:35 PM 52.7 °F - 43.2 °F 70% 29.96 in 10.0 mi NW 3.5 mph - N/A   Mostly Cloudy
11:55 PM 52.0 °F - 42.3 °F 69% 29.97 in 10.0 mi WNW 4.6 mph - N/A   Scattered Clouds